Key West, FL

4:28 AM EST on January 22, 2017 (GMT -0500)
Key West International

Weather History for KEYW - October, 2013

Change the Weather History Date:

Saturday, October 12, 2013

  Actual Average Record
Temperature  
Mean Temperature 83 °F 81 °F  
Max Temperature 87 °F 85 °F 92 °F (1876)
Min Temperature 78 °F 77 °F 64 °F (1953)
Degree Days  
Heating Degree Days 0 0  
Month to date heating degree days 0 0  
Since 1 July heating degree days 0 0  
Cooling Degree Days 18 16  
Month to date cooling degree days 213 199  
Year to date cooling degree days 4075 3934  
Growing Degree Days 32 (Base 50)    
Moisture  
Dew Point 68 °F    
Average Humidity 61    
Maximum Humidity 74    
Minimum Humidity 48    
Precipitation  
Precipitation 0.00 in 0.18 in 6.49 in (1971)
Month to date precipitation 0.92 2.24  
Year to date precipitation 41.23 32.62  
Snow  
Snow 0.00 in - - ()
Month to date snowfall 0.0  
Since 1 July snowfall 0.0  
Since 1 September snowfall 0.0  
Snow Depth 0.00 in    
Sea Level Pressure  
Sea Level Pressure 30.00 in    
Wind  
Wind Speed 7 mph (ENE)    
Max Wind Speed 15 mph    
Max Gust Speed 18 mph    
Visibility 10 miles    
Events      
T = Trace of Precipitation, MM = Missing Value Source: NWS Daily Summary

Daily Weather History Graph

Daily Weather History Graph

Search for Another Location

Airport or City:

Trip Planner

Search our weather history database for the weather conditions in past years. The results will help you decide how hot, cold, wet, or windy it might be!

Date:

Astronomy

Oct. 12, 2013 Rise Set
Actual Time 7:23 AM EDT 7:02 PM EDT
Civil Twilight 7:00 AM EDT 7:25 PM EDT
Nautical Twilight 6:34 AM EDT 7:52 PM EDT
Astronomical Twilight 6:07 AM EDT 8:18 PM EDT
Moon 2:35 PM EDT (10/12) 1:04 AM EDT (10/12)
Length of Visible Light 12h 24m
Length of Day
11h 39m
First Quarter, 58% of the Moon is Illuminated
Oct 12
First Quarter
Oct 18
Full
Oct 26
Last Quarter
Nov 3
New
Nov 10
First Quarter

Hourly Weather History & Observations

Time (EDT) Temp. Heat Index Dew Point Humidity Pressure Visibility Wind Dir Wind Speed Gust Speed Precip Events Conditions
12:53 AM 81.0 °F 83.8 °F 68.0 °F 65% 29.98 in 10.0 mi ESE 13.8 mph - N/A   Clear
1:53 AM 80.1 °F 82.9 °F 69.1 °F 69% 29.97 in 10.0 mi East 11.5 mph - N/A   Clear
2:53 AM 80.1 °F 82.9 °F 69.1 °F 69% 29.96 in 10.0 mi East 6.9 mph - N/A   Clear
3:53 AM 80.1 °F 82.9 °F 69.1 °F 69% 29.95 in 10.0 mi East 6.9 mph - N/A   Clear
4:53 AM 79.0 °F - 69.1 °F 72% 29.95 in 10.0 mi ENE 5.8 mph - N/A   Partly Cloudy
5:53 AM 79.0 °F - 70.0 °F 74% 29.97 in 10.0 mi ENE 4.6 mph - N/A   Clear
6:53 AM 78.1 °F - 70.0 °F 76% 29.99 in 10.0 mi East 8.1 mph - N/A   Clear
7:53 AM 79.0 °F - 70.0 °F 74% 30.00 in 10.0 mi ENE 5.8 mph - N/A   Clear
8:53 AM 81.0 °F 84.4 °F 70.0 °F 69% 30.01 in 10.0 mi ENE 6.9 mph - N/A   Clear
9:53 AM 82.9 °F 85.8 °F 68.0 °F 60% 30.02 in 10.0 mi ENE 5.8 mph - N/A   Clear
10:53 AM 84.9 °F 87.6 °F 66.9 °F 55% 30.03 in 10.0 mi ENE 8.1 mph - N/A   Clear
11:53 AM 84.9 °F 87.1 °F 66.0 °F 53% 30.03 in 10.0 mi NNE 10.4 mph - N/A   Clear
12:53 PM 86.0 °F 87.6 °F 64.9 °F 49% 30.01 in 10.0 mi NE 10.4 mph - N/A   Clear
1:53 PM 86.0 °F 87.6 °F 64.9 °F 49% 30.00 in 10.0 mi NE 9.2 mph - N/A   Clear
2:53 PM 86.0 °F 87.6 °F 64.9 °F 49% 29.98 in 10.0 mi NNE 8.1 mph - N/A   Clear
3:53 PM 84.9 °F 86.6 °F 64.9 °F 51% 29.98 in 10.0 mi NE 10.4 mph - N/A   Clear
4:53 PM 84.9 °F 87.1 °F 66.0 °F 53% 29.98 in 10.0 mi NNE 8.1 mph - N/A   Clear
5:53 PM 84.0 °F 86.5 °F 66.9 °F 56% 29.99 in 10.0 mi NNE 6.9 mph - N/A   Clear
6:53 PM 82.0 °F 84.5 °F 66.9 °F 60% 29.99 in 10.0 mi NE 4.6 mph - N/A   Clear
7:53 PM 81.0 °F 83.3 °F 66.9 °F 62% 30.01 in 10.0 mi NE 3.5 mph - N/A   Clear
8:53 PM 80.1 °F 82.3 °F 66.9 °F 64% 30.02 in 10.0 mi East 4.6 mph - N/A   Clear
9:53 PM 79.0 °F - 68.0 °F 69% 30.03 in 10.0 mi East 4.6 mph - N/A   Clear
10:53 PM 79.0 °F - 68.0 °F 69% 30.04 in 10.0 mi East 4.6 mph - N/A   Clear
11:53 PM 79.0 °F - 68.0 °F 69% 30.03 in 10.0 mi ENE 3.5 mph - N/A   Clear